FW9917 Weather Reports


Display with metric or nautical units.
time (UTC)temp
F
wind
direction
speed
MPH
gust
MPH
rain 1hr
in
rain 24hr
in
rain mn
in
humidity
%
barometer
mb
20260507051055 49 89 0.0 2.0 0.00 0.00 0.00 75 1024.9
20260507050555 49 67 0.0 3.0 0.00 0.00 0.00 75 1024.8
20260507050058 49 0 0.0 3.0 0.00 0.00 0.00 74 1024.7
20260507045556 49 84 0.0 3.0 0.00 0.00 0.00 74 1024.6
20260507045056 49 80 1.0 3.0 0.00 0.00 0.00 73 1024.7
20260507044559 50 0 1.0 3.0 0.00 0.00 0.00 74 1024.6
20260507044056 50 88 0.0 3.0 0.00 0.00 0.00 73 1024.6
20260507043556 50 83 1.0 3.0 0.00 0.00 0.00 72 1024.6
20260507043056 50 82 1.0 3.0 0.00 0.00 0.00 71 1024.5
20260507042557 50 80 0.0 3.0 0.00 0.00 0.00 71 1024.6
20260507042058 50 0 1.0 3.0 0.00 0.00 0.00 69 1024.5
20260507041557 50 83 0.0 3.0 0.00 0.00 0.00 67 1024.5
20260507041056 50 79 1.0 3.0 0.00 0.00 0.00 66 1024.5
20260507040557 50 86 1.0 3.0 0.00 0.00 0.00 65 1024.6
20260507040109 51 0 1.0 2.0 0.00 0.00 0.00 64 1024.5
20260507035556 51 83 1.0 4.0 0.00 0.00 0.00 63 1024.4
20260507035058 51 88 1.0 4.0 0.00 0.00 0.00 63 1024.4
20260507034557 52 80 0.0 4.0 0.00 0.00 0.00 61 1024.4
20260507034055 52 86 1.0 3.0 0.00 0.00 0.00 61 1024.2
20260507033556 53 80 1.0 3.0 0.00 0.00 0.00 61 1024.1
20260507033103 53 86 0.0 3.0 0.00 0.00 0.00 61 1024.1
20260507032556 53 88 1.0 3.0 0.00 0.00 0.00 60 1024.0
20260507032057 54 0 0.0 3.0 0.00 0.00 0.00 60 1024.0
20260507031619 54 82 0.0 3.0 0.00 0.00 0.00 58 1024.0
20260507031058 55 0 0.0 3.0 0.00 0.00 0.00 58 1024.0
20260507030556 55 81 0.0 3.0 0.00 0.00 0.00 55 1023.9
20260507030057 56 10 1.0 3.0 0.00 0.00 0.00 54 1023.8
20260507025556 57 11 0.0 2.0 0.00 0.00 0.00 54 1023.8
20260507025056 58 0 0.0 2.0 0.00 0.00 0.00 51 1023.8
20260507024559 59 0 0.0 2.0 0.00 0.00 0.00 51 1023.6
20260507024056 60 11 0.0 2.0 0.00 0.00 0.00 50 1023.6
20260507023556 60 0 0.0 1.0 0.00 0.00 0.00 51 1023.6
20260507023055 61 0 0.0 1.0 0.00 0.00 0.00 50 1023.4
20260507022556 61 0 0.0 2.0 0.00 0.00 0.00 48 1023.4
20260507022056 62 0 0.0 2.0 0.00 0.00 0.00 48 1023.2
20260507021601 63 0 0.0 2.0 0.00 0.00 0.00 43 1023.2
20260507021056 63 0 0.0 2.0 0.00 0.00 0.00 40 1023.1
20260507020558 64 0 0.0 2.0 0.00 0.00 0.00 41 1023.1
20260507020110 64 15 0.0 2.0 0.00 0.00 0.00 40 1023.0
20260507015556 65 15 0.0 2.0 0.00 0.00 0.00 38 1023.0
20260507015056 65 0 0.0 2.0 0.00 0.00 0.00 39 1023.0
20260507014559 65 0 0.0 2.0 0.00 0.00 0.00 38 1023.0
20260507014056 65 15 0.0 2.0 0.00 0.00 0.00 35 1023.0
20260507013556 66 15 0.0 2.0 0.00 0.00 0.00 34 1022.9
20260507013116 66 15 0.0 3.0 0.00 0.00 0.00 33 1022.8
20260507012556 65 14 0.0 3.0 0.00 0.00 0.00 32 1023.0
20260507012056 66 14 0.0 3.0 0.00 0.00 0.00 30 1022.9
20260507011601 66 13 0.0 3.0 0.00 0.00 0.00 31 1023.0
20260507011057 66 0 0.0 3.0 0.00 0.00 0.00 34 1023.0
20260507010555 66 13 0.0 3.0 0.00 0.00 0.00 32 1023.1
20260507010105 66 15 1.0 3.0 0.00 0.00 0.00 31 1023.1
20260507005556 67 15 1.0 3.0 0.00 0.00 0.00 30 1023.2
20260507005058 67 0 0.0 3.0 0.00 0.00 0.00 31 1023.0
20260507004554 67 15 0.0 3.0 0.00 0.00 0.00 30 1023.1
20260507004056 68 0 1.0 3.0 0.00 0.00 0.00 30 1023.1
20260507003556 68 0 0.0 3.0 0.00 0.00 0.00 29 1023.1
20260507003056 69 15 1.0 4.0 0.00 0.00 0.00 32 1023.1
20260507002555 69 15 1.0 4.0 0.00 0.00 0.00 30 1023.0
20260507002056 70 16 1.0 4.0 0.00 0.00 0.00 30 1023.1
20260507001557 70 0 1.0 4.0 0.00 0.00 0.00 28 1023.0
20260507001056 70 16 0.0 4.0 0.00 0.00 0.00 29 1023.0
20260507000558 69 15 0.0 4.0 0.00 0.00 0.00 30 1023.0
20260507000055 69 0 1.0 4.0 0.00 0.00 0.00 30 1023.1
20260506235557 69 13 0.0 3.0 0.00 0.00 0.00 31 1023.2
20260506235056 69 0 0.0 4.0 0.00 0.00 0.00 33 1023.1
20260506234554 68 14 1.0 4.0 0.00 0.00 0.00 31 1023.1
20260506234056 69 15 1.0 4.0 0.00 0.00 0.00 31 1023.2
20260506233556 69 13 1.0 4.0 0.00 0.00 0.00 33 1023.1
20260506233105 69 13 1.0 3.0 0.00 0.00 0.00 34 1023.1
20260506232555 69 0 1.0 4.0 0.00 0.00 0.00 33 1023.1
20260506232056 68 0 1.0 6.0 0.00 0.00 0.00 32 1023.1
20260506231600 68 14 1.0 7.0 0.00 0.00 0.00 34 1023.3
20260506231056 68 5 1.0 7.0 0.00 0.00 0.00 36 1023.3
20260506230555 68 13 1.0 4.0 0.00 0.00 0.00 34 1023.4
20260506225559 68 15 1.0 4.0 0.00 0.00 0.00 39 1023.4
20260506225056 68 16 1.0 4.0 0.00 0.00 0.00 40 1023.5
20260506224557 68 14 1.0 3.0 0.00 0.00 0.00 38 1023.5
20260506224056 68 15 1.0 4.0 0.00 0.00 0.00 41 1023.5
20260506223556 68 14 1.0 4.0 0.00 0.00 0.00 39 1023.6
20260506223057 68 15 1.0 4.0 0.00 0.00 0.00 42 1023.6
20260506222556 67 16 1.0 4.0 0.00 0.00 0.00 40 1023.7
20260506222056 67 16 1.0 4.0 0.00 0.00 0.00 47 1023.7
20260506221600 66 15 1.0 5.0 0.00 0.00 0.00 43 1023.7
20260506221057 66 14 1.0 5.0 0.00 0.00 0.00 44 1023.8
20260506220600 66 14 1.0 4.0 0.00 0.00 0.00 42 1023.8
20260506220059 66 0 0.0 3.0 0.00 0.00 0.00 42 1023.8
20260506215558 66 15 0.0 5.0 0.00 0.00 0.00 44 1023.9
20260506215055 66 14 1.0 5.0 0.00 0.00 0.00 43 1023.9
20260506214602 65 15 1.0 5.0 0.00 0.00 0.00 43 1024.0
20260506214057 66 14 1.0 5.0 0.00 0.00 0.00 41 1024.0
20260506213556 66 14 1.0 5.0 0.00 0.00 0.00 44 1024.1
20260506213056 66 16 1.0 5.0 0.00 0.00 0.00 46 1024.1
20260506212556 66 15 2.0 5.0 0.00 0.00 0.00 45 1024.1
20260506212056 66 5 1.0 5.0 0.00 0.00 0.00 45 1024.1
20260506211610 66 14 1.0 5.0 0.00 0.00 0.00 43 1024.1
20260506211056 66 14 1.0 5.0 0.00 0.00 0.00 41 1024.2
20260506210556 66 14 1.0 5.0 0.00 0.00 0.00 43 1024.2
20260506210109 66 13 1.0 4.0 0.00 0.00 0.00 43 1024.3
20260506205556 66 13 1.0 4.0 0.00 0.00 0.00 44 1024.3
20260506205056 66 15 0.0 2.0 0.00 0.00 0.00 47 1024.3
20260506204602 65 0 0.0 4.0 0.00 0.00 0.00 47 1024.3
20260506204058 64 15 1.0 4.0 0.00 0.00 0.00 50 1024.4
20260506203555 64 14 1.0 3.0 0.00 0.00 0.00 51 1024.3
20260506203100 63 13 0.0 3.0 0.00 0.00 0.00 50 1024.3
20260506202556 62 14 0.0 4.0 0.00 0.00 0.00 53 1024.4
20260506202057 62 15 1.0 4.0 0.00 0.00 0.00 54 1024.5
20260506201558 61 13 2.0 4.0 0.00 0.00 0.00 52 1024.5
20260506201057 61 15 1.0 4.0 0.00 0.00 0.00 55 1024.5
20260506200556 61 14 1.0 4.0 0.00 0.00 0.00 60 1024.6
20260506200105 60 16 1.0 4.0 0.00 0.00 0.00 63 1024.6
20260506195559 60 15 1.0 4.0 0.00 0.00 0.00 61 1024.4
20260506195057 60 13 1.0 4.0 0.00 0.00 0.00 60 1024.5
20260506194055 59 13 1.0 4.0 0.00 0.00 0.00 62 1024.5
20260506193555 59 15 1.0 4.0 0.00 0.00 0.00 63 1024.6
20260506193055 60 14 1.0 4.0 0.00 0.00 0.00 61 1024.5
20260506192555 61 14 1.0 4.0 0.00 0.00 0.00 61 1024.5
20260506192056 61 14 1.0 3.0 0.00 0.00 0.00 62 1024.4
20260506191553 60 13 1.0 3.0 0.00 0.00 0.00 64 1024.4
20260506191056 59 0 0.0 3.0 0.00 0.00 0.00 70 1024.4
20260506190557 59 15 0.0 3.0 0.00 0.00 0.00 69 1024.5
20260506190057 58 0 0.0 3.0 0.00 0.00 0.00 67 1024.6
20260506185556 57 14 0.0 4.0 0.00 0.00 0.00 73 1024.6
20260506185056 56 0 1.0 4.0 0.00 0.00 0.00 77 1024.6
20260506184607 56 0 0.0 4.0 0.00 0.00 0.00 76 1024.6
20260506184056 55 0 0.0 5.0 0.00 0.00 0.00 79 1024.7
20260506183557 54 0 1.0 5.0 0.00 0.00 0.00 81 1024.7
20260506183056 54 0 1.0 5.0 0.00 0.00 0.00 78 1024.6
20260506182555 54 15 1.0 4.0 0.00 0.00 0.00 78 1024.6
20260506182055 54 14 1.0 4.0 0.00 0.00 0.00 79 1024.6
20260506181557 55 14 1.0 4.0 0.00 0.00 0.00 77 1024.7
20260506181056 55 15 0.0 4.0 0.00 0.00 0.00 78 1024.6
20260506180557 55 15 1.0 4.0 0.00 0.00 0.00 76 1024.5
20260506175559 54 360 0.0 4.0 0.00 0.00 0.00 79 1024.4
20260506175056 54 0 0.0 4.0 0.00 0.00 0.00 77 1024.4
20260506174556 53 0 0.0 4.0 0.00 0.00 0.00 79 1024.5
20260506174056 54 0 1.0 4.0 0.00 0.00 0.00 79 1024.5
20260506173556 54 0 0.0 4.0 0.00 0.00 0.00 78 1024.4
20260506173108 54 15 1.0 4.0 0.00 0.00 0.00 78 1024.4
20260506172556 54 15 1.0 3.0 0.00 0.00 0.00 77 1024.3
20260506172056 54 14 0.0 3.0 0.00 0.00 0.00 76 1024.2
20260506171600 54 0 1.0 3.0 0.00 0.00 0.00 78 1024.2
20260506171057 53 0 0.0 3.0 0.00 0.00 0.00 76 1024.2
20260506170556 52 0 0.0 4.0 0.00 0.00 0.00 76 1024.3
20260506165556 52 15 0.0 3.0 0.00 0.00 0.00 78 1024.3
20260506165056 52 0 0.0 3.0 0.00 0.00 0.00 80 1024.4
20260506164618 51 15 0.0 2.0 0.00 0.00 0.00 81 1024.3
20260506164056 51 0 0.0 2.0 0.00 0.00 0.00 83 1024.3
20260506163556 51 14 0.0 3.0 0.00 0.00 0.00 82 1024.3
20260506163106 50 0 0.0 3.0 0.00 0.00 0.00 84 1024.2
20260506162556 50 0 0.0 2.0 0.00 0.00 0.00 85 1024.2
20260506162056 49 0 0.0 3.0 0.00 0.00 0.00 86 1024.1
20260506161555 49 0 1.0 3.0 0.00 0.00 0.00 85 1024.1
20260506161056 48 16 0.0 3.0 0.00 0.00 0.00 87 1024.0
20260506160556 48 15 1.0 3.0 0.00 0.00 0.00 88 1024.1
20260506160107 47 14 0.0 2.0 0.00 0.00 0.00 89 1024.0
20260506155556 47 14 0.0 2.0 0.00 0.00 0.00 91 1024.0
20260506155056 46 14 0.0 3.0 0.00 0.00 0.00 92 1024.1
20260506154557 46 0 0.0 3.0 0.00 0.00 0.00 92 1024.0
20260506154056 45 15 0.0 2.0 0.00 0.00 0.00 94 1024.1
20260506153555 45 0 0.0 2.0 0.00 0.00 0.00 95 1024.1
20260506153055 44 0 0.0 2.0 0.00 0.00 0.00 96 1024.1
20260506152555 44 0 0.0 1.0 0.00 0.00 0.00 96 1024.0
20260506152056 44 0 0.0 1.0 0.00 0.00 0.00 98 1024.0
20260506151558 43 0 0.0 1.0 0.00 0.00 0.00 98 1024.0
20260506151056 43 0 0.0 0.0 0.00 0.00 0.00 98 1023.9
20260506150556 42 0 0.0 0.0 0.00 0.00 0.00 97 1023.8
20260506150055 42 0 0.0 0.0 0.00 0.00 0.00 97 1023.8
20260506145558 42 0 0.0 1.0 0.00 0.02 0.00 97 1023.8
20260506145056 41 0 0.0 1.0 0.00 0.02 0.00 97 1023.8
20260506144603 41 0 0.0 1.0 0.00 0.02 0.00 97 1023.7
20260506144056 41 0 0.0 1.0 0.00 0.02 0.00 97 1023.7
20260506143556 41 0 0.0 1.0 0.00 0.02 0.00 97 1023.7
20260506143105 40 0 0.0 1.0 0.00 0.02 0.00 97 1023.6
20260506142556 40 0 0.0 2.0 0.00 0.02 0.00 96 1023.6
20260506142055 39 0 0.0 2.0 0.00 0.02 0.00 96 1023.6
20260506141611 39 0 0.0 2.0 0.00 0.02 0.00 96 1023.5
20260506141057 39 0 0.0 2.0 0.00 0.02 0.00 96 1023.3
20260506140558 39 0 0.0 1.0 0.00 0.02 0.00 95 1023.2
20260506140101 39 0 0.0 0.0 0.00 0.02 0.00 95 1023.1
20260506135556 39 0 0.0 0.0 0.00 0.03 0.00 95 1023.1
20260506135056 39 0 0.0 2.0 0.00 0.03 0.00 95 1023.0
20260506134557 38 0 0.0 2.0 0.00 0.03 0.00 95 1022.9
20260506134056 38 84 0.0 2.0 0.00 0.03 0.00 95 1022.8
20260506133559 38 0 0.0 2.0 0.00 0.03 0.00 95 1022.8
20260506133107 38 0 0.0 2.0 0.00 0.03 0.00 95 1022.8
20260506132556 38 0 0.0 2.0 0.00 0.03 0.00 95 1022.6
20260506132056 38 82 0.0 2.0 0.00 0.03 0.00 94 1022.7
20260506131558 38 81 0.0 2.0 0.00 0.03 0.00 94 1022.6
20260506131057 39 0 0.0 2.0 0.00 0.03 0.00 94 1022.5
20260506130556 39 82 0.0 2.0 0.00 0.03 0.00 94 1022.4
20260506130055 39 0 1.0 2.0 0.00 0.03 0.00 95 1022.3
20260506125556 39 85 0.0 2.0 0.00 0.05 0.00 95 1022.3
20260506125056 39 0 0.0 2.0 0.00 0.05 0.00 95 1022.3
20260506124555 39 0 0.0 2.0 0.00 0.05 0.00 95 1022.2
20260506124056 39 0 0.0 2.0 0.00 0.05 0.00 94 1022.1
20260506123556 39 84 0.0 2.0 0.00 0.05 0.00 94 1022.1
20260506123056 39 86 0.0 2.0 0.00 0.05 0.00 94 1021.9
20260506122556 39 85 0.0 2.0 0.00 0.05 0.00 95 1021.9
20260506122057 39 86 0.0 3.0 0.00 0.05 0.00 95 1021.9
20260506121602 39 85 0.0 3.0 0.00 0.05 0.00 95 1021.9
20260506121056 39 82 0.0 3.0 0.00 0.05 0.00 95 1021.9
20260506120556 39 84 0.0 2.0 0.00 0.05 0.00 94 1021.7
20260506120118 39 0 0.0 2.0 0.00 0.05 0.00 94 1021.6
20260506115556 39 0 0.0 2.0 0.00 0.06 0.00 94 1021.5
20260506115056 39 0 0.0 2.0 0.00 0.06 0.00 94 1021.5
20260506114555 39 73 0.0 2.0 0.00 0.06 0.00 94 1021.4
20260506114055 39 84 0.0 2.0 0.00 0.06 0.00 94 1021.4
20260506113556 39 82 0.0 3.0 0.00 0.06 0.00 94 1021.4
20260506113103 39 0 0.0 3.0 0.00 0.06 0.00 94 1021.4
20260506112557 39 0 0.0 3.0 0.00 0.06 0.00 94 1021.4
20260506112056 39 0 0.0 2.0 0.00 0.06 0.00 94 1021.3
20260506111555 39 83 0.0 2.0 0.00 0.06 0.00 94 1021.3
20260506111056 39 85 0.0 2.0 0.00 0.06 0.00 94 1021.2
20260506110558 39 80 0.0 2.0 0.00 0.06 0.00 94 1021.3
20260506110101 39 73 0.0 2.0 0.00 0.06 0.00 94 1021.0
20260506105556 40 0 0.0 2.0 0.00 0.08 0.00 94 1021.0
20260506105056 40 0 0.0 2.0 0.00 0.08 0.00 94 1020.9
20260506104556 40 0 0.0 2.0 0.00 0.08 0.00 94 1020.9
20260506104055 40 77 0.0 2.0 0.00 0.08 0.00 93 1020.8
20260506103556 40 0 0.0 2.0 0.00 0.08 0.00 93 1020.7
20260506103057 40 0 0.0 2.0 0.00 0.08 0.00 93 1020.6
20260506102557 40 76 0.0 2.0 0.00 0.08 0.00 94 1020.5
20260506102056 40 63 0.0 2.0 0.00 0.08 0.00 93 1020.5
20260506101558 40 0 0.0 2.0 0.00 0.08 0.00 93 1020.4
20260506101056 40 0 0.0 2.0 0.00 0.08 0.00 93 1020.3
20260506100555 40 76 0.0 2.0 0.00 0.08 0.00 93 1020.5
20260506100057 40 62 0.0 2.0 0.00 0.08 0.00 93 1020.5
20260506095556 40 0 0.0 2.0 0.00 0.12 0.00 93 1020.4
20260506095055 40 0 1.0 2.0 0.00 0.12 0.00 93 1020.2
20260506094557 40 84 0.0 3.0 0.00 0.12 0.00 93 1020.1
20260506094057 40 0 0.0 3.0 0.00 0.12 0.00 93 1020.2
20260506093556 40 84 0.0 2.0 0.00 0.12 0.00 93 1020.2
20260506093057 41 82 0.0 2.0 0.00 0.12 0.00 93 1020.2
20260506092556 41 85 0.0 2.0 0.00 0.12 0.00 92 1020.2
20260506092056 41 81 0.0 3.0 0.00 0.12 0.00 93 1020.0
20260506091558 41 42 0.0 3.0 0.00 0.12 0.00 93 1020.1
20260506091056 41 83 1.0 3.0 0.00 0.12 0.00 93 1020.1
20260506090555 41 85 1.0 3.0 0.00 0.12 0.00 93 1020.1
20260506090056 41 89 0.0 2.0 0.00 0.12 0.00 92 1020.1
20260506085556 41 0 1.0 2.0 0.00 0.17 0.00 93 1020.1
20260506085056 41 85 0.0 2.0 0.00 0.17 0.00 92 1020.1
20260506084556 41 0 0.0 2.0 0.00 0.17 0.00 93 1020.1
20260506084056 41 79 0.0 2.0 0.00 0.17 0.00 93 1020.1
20260506083556 41 107 0.0 2.0 0.00 0.17 0.00 92 1020.1
20260506083057 41 0 0.0 3.0 0.00 0.17 0.00 92 1020.0
20260506082557 41 0 0.0 3.0 0.00 0.17 0.00 92 1020.0
20260506082056 41 86 1.0 3.0 0.00 0.17 0.00 92 1020.0
20260506081556 41 80 0.0 2.0 0.00 0.17 0.00 92 1020.0
20260506081056 41 86 0.0 2.0 0.00 0.17 0.00 92 1020.0
20260506080556 41 0 0.0 2.0 0.00 0.17 0.00 92 1020.0
20260506073059 42 69 0.0 3.0 0.00 0.32 0.00 92 1019.7
20260506072557 42 0 0.0 3.0 0.00 0.32 0.00 92 1019.7
20260506072057 42 84 0.0 3.0 0.00 0.32 0.00 92 1019.5
20260506071556 42 0 0.0 3.0 0.00 0.32 0.00 92 1019.4
20260506071057 42 84 0.0 2.0 0.00 0.32 0.00 92 1019.4
20260506070556 42 78 0.0 2.0 0.00 0.32 0.00 91 1019.3
20260506070115 43 0 0.0 2.0 0.00 0.32 0.00 91 1019.3
20260506062100 44 77 0.0 2.0 0.00 0.37 0.32 90 1019.0
20260506061602 44 85 0.0 2.0 0.00 0.37 0.32 90 1018.9
20260506061057 44 0 0.0 2.0 0.00 0.37 0.32 91 1018.9
20260506060556 44 86 0.0 2.0 0.00 0.37 0.32 91 1018.8
20260506060104 44 86 0.0 2.0 0.00 0.37 0.32 90 1018.8